Time,TemperatureF,DewpointF,PressureIn,WindDirection,WindDirectionDegrees,WindSpeedMPH,WindSpeedGustMPH,Humidity,HourlyPrecipIn,Conditions,Clouds,dailyrainin,SoftwareType,DateUTC
2013-04-19 00:00:00,69.1,60.5,30.04,NE,45,2.0,-999.0,74,0.00,,,0.03,Wunderground v.1.15,2013-04-19 10:00:00,
2013-04-19 00:05:00,69.1,60.5,30.04,NE,45,2.0,-999.0,74,0.00,,,0.03,Wunderground v.1.15,2013-04-19 10:05:00,
2013-04-19 00:10:00,69.1,60.5,30.04,NE,45,2.0,-999.0,74,0.00,,,0.03,Wunderground v.1.15,2013-04-19 10:10:00,
2013-04-19 00:15:00,69.1,60.5,30.04,NE,45,2.0,-999.0,74,0.00,,,0.03,Wunderground v.1.15,2013-04-19 10:15:00,
2013-04-19 00:20:00,69.1,60.5,30.04,NE,45,2.0,-999.0,74,0.00,,,0.03,Wunderground v.1.15,2013-04-19 10:20:00,
2013-04-19 00:25:00,69.1,60.5,30.04,NE,45,2.0,-999.0,74,0.00,,,0.03,Wunderground v.1.15,2013-04-19 10:25:00,
2013-04-19 00:30:00,69.1,60.5,30.04,NE,45,2.0,-999.0,74,0.00,,,0.03,Wunderground v.1.15,2013-04-19 10:30:00,
2013-04-19 00:35:00,69.1,60.5,30.04,NE,45,2.0,-999.0,74,0.00,,,0.03,Wunderground v.1.15,2013-04-19 10:35:00,
2013-04-19 00:40:00,69.1,60.5,30.04,NE,45,2.0,-999.0,74,0.00,,,0.03,Wunderground v.1.15,2013-04-19 10:40:00,
2013-04-19 00:45:00,69.5,61.2,30.03,ENE,68,1.0,-999.0,75,0.00,,,0.03,Wunderground v.1.15,2013-04-19 10:45:00,
2013-04-19 00:50:00,69.5,61.2,30.03,ENE,68,1.0,-999.0,75,0.00,,,0.03,Wunderground v.1.15,2013-04-19 10:50:00,
2013-04-19 00:55:00,69.5,61.2,30.03,ENE,68,1.0,-999.0,75,0.00,,,0.03,Wunderground v.1.15,2013-04-19 10:55:00,
2013-04-19 01:00:00,69.5,61.2,30.03,ENE,68,1.0,-999.0,75,0.00,,,0.03,Wunderground v.1.15,2013-04-19 11:00:00,
2013-04-19 01:05:00,69.5,61.2,30.03,ENE,68,1.0,-999.0,75,0.00,,,0.03,Wunderground v.1.15,2013-04-19 11:05:00,
2013-04-19 01:10:00,69.5,61.2,30.03,ENE,68,1.0,-999.0,75,0.00,,,0.03,Wunderground v.1.15,2013-04-19 11:10:00,
2013-04-19 01:15:00,69.0,60.7,30.01,ENE,68,3.0,-999.0,75,0.00,,,0.03,Wunderground v.1.15,2013-04-19 11:15:00,
2013-04-19 01:20:00,69.0,60.7,30.01,ENE,68,3.0,-999.0,75,0.00,,,0.03,Wunderground v.1.15,2013-04-19 11:20:00,
2013-04-19 01:25:00,69.0,60.7,30.01,ENE,68,3.0,-999.0,75,0.00,,,0.03,Wunderground v.1.15,2013-04-19 11:25:00,
2013-04-19 01:30:00,69.0,60.7,30.01,ENE,68,3.0,-999.0,75,0.00,,,0.03,Wunderground v.1.15,2013-04-19 11:30:00,
2013-04-19 01:35:00,69.0,60.7,30.01,ENE,68,3.0,-999.0,75,0.00,,,0.03,Wunderground v.1.15,2013-04-19 11:35:00,
2013-04-19 01:40:00,69.0,60.7,30.01,ENE,68,3.0,-999.0,75,0.00,,,0.03,Wunderground v.1.15,2013-04-19 11:40:00,
2013-04-19 01:45:00,68.6,60.4,30.00,ENE,68,3.0,-999.0,75,0.00,,,0.03,Wunderground v.1.15,2013-04-19 11:45:00,
2013-04-19 01:50:00,68.6,60.4,30.00,ENE,68,3.0,-999.0,75,0.00,,,0.03,Wunderground v.1.15,2013-04-19 11:50:00,
2013-04-19 01:55:00,68.6,60.4,30.00,ENE,68,3.0,-999.0,75,0.00,,,0.03,Wunderground v.1.15,2013-04-19 11:55:00,
2013-04-19 02:00:00,68.6,60.4,30.00,ENE,68,3.0,-999.0,75,0.00,,,0.03,Wunderground v.1.15,2013-04-19 12:00:00,
2013-04-19 02:05:00,68.6,60.4,30.00,ENE,68,3.0,-999.0,75,0.00,,,0.03,Wunderground v.1.15,2013-04-19 12:05:00,
2013-04-19 02:10:00,68.6,60.4,30.00,ENE,68,3.0,-999.0,75,0.00,,,0.03,Wunderground v.1.15,2013-04-19 12:10:00,
2013-04-19 02:15:00,68.7,61.6,30.00,NE,45,2.0,-999.0,78,0.00,,,0.03,Wunderground v.1.15,2013-04-19 12:15:00,
2013-04-19 02:20:00,68.7,61.6,30.00,NE,45,2.0,-999.0,78,0.00,,,0.03,Wunderground v.1.15,2013-04-19 12:20:00,
2013-04-19 02:25:00,68.7,61.6,30.00,NE,45,2.0,-999.0,78,0.00,,,0.03,Wunderground v.1.15,2013-04-19 12:25:00,
2013-04-19 02:30:00,68.7,61.6,30.00,NE,45,2.0,-999.0,78,0.00,,,0.03,Wunderground v.1.15,2013-04-19 12:30:00,
2013-04-19 02:35:00,68.7,61.6,30.00,NE,45,2.0,-999.0,78,0.00,,,0.03,Wunderground v.1.15,2013-04-19 12:35:00,
2013-04-19 02:40:00,68.7,61.6,30.00,NE,45,2.0,-999.0,78,0.00,,,0.03,Wunderground v.1.15,2013-04-19 12:40:00,
2013-04-19 02:45:00,68.6,62.9,29.99,NE,45,3.0,-999.0,82,0.00,,,0.03,Wunderground v.1.15,2013-04-19 12:45:00,
2013-04-19 02:50:00,68.6,62.9,29.99,NE,45,3.0,-999.0,82,0.00,,,0.03,Wunderground v.1.15,2013-04-19 12:50:00,
2013-04-19 02:55:00,68.6,62.9,29.99,NE,45,3.0,-999.0,82,0.00,,,0.03,Wunderground v.1.15,2013-04-19 12:55:00,
2013-04-19 03:00:00,68.6,62.9,29.99,NE,45,3.0,-999.0,82,0.00,,,0.03,Wunderground v.1.15,2013-04-19 13:00:00,
2013-04-19 03:05:00,68.6,62.9,29.99,NE,45,3.0,-999.0,82,0.00,,,0.03,Wunderground v.1.15,2013-04-19 13:05:00,
2013-04-19 03:10:00,68.6,62.9,29.99,NE,45,3.0,-999.0,82,0.00,,,0.03,Wunderground v.1.15,2013-04-19 13:10:00,
2013-04-19 03:15:00,68.8,63.4,29.99,NE,45,5.0,-999.0,83,0.00,,,0.03,Wunderground v.1.15,2013-04-19 13:15:00,
2013-04-19 03:20:00,68.8,63.4,29.99,NE,45,5.0,-999.0,83,0.00,,,0.03,Wunderground v.1.15,2013-04-19 13:20:00,
2013-04-19 03:25:00,68.8,63.4,29.99,NE,45,5.0,-999.0,83,0.00,,,0.03,Wunderground v.1.15,2013-04-19 13:25:00,
2013-04-19 03:30:00,68.8,63.4,29.99,NE,45,5.0,-999.0,83,0.00,,,0.03,Wunderground v.1.15,2013-04-19 13:30:00,
2013-04-19 03:35:00,68.8,63.4,29.99,NE,45,5.0,-999.0,83,0.00,,,0.03,Wunderground v.1.15,2013-04-19 13:35:00,
2013-04-19 03:40:00,68.8,63.4,29.99,NE,45,5.0,-999.0,83,0.00,,,0.03,Wunderground v.1.15,2013-04-19 13:40:00,
2013-04-19 03:45:00,69.0,64.6,29.99,NE,45,4.0,-999.0,86,0.00,,,0.03,Wunderground v.1.15,2013-04-19 13:45:00,
2013-04-19 03:50:00,69.0,64.6,29.99,NE,45,4.0,-999.0,86,0.00,,,0.03,Wunderground v.1.15,2013-04-19 13:50:00,
2013-04-19 03:55:00,69.0,64.6,29.99,NE,45,4.0,-999.0,86,0.00,,,0.03,Wunderground v.1.15,2013-04-19 13:55:00,
2013-04-19 04:00:00,69.0,64.6,29.99,NE,45,4.0,-999.0,86,0.00,,,0.03,Wunderground v.1.15,2013-04-19 14:00:00,
2013-04-19 04:05:00,69.0,64.6,29.99,NE,45,4.0,-999.0,86,0.00,,,0.03,Wunderground v.1.15,2013-04-19 14:05:00,
2013-04-19 04:10:00,69.0,64.6,29.99,NE,45,4.0,-999.0,86,0.00,,,0.03,Wunderground v.1.15,2013-04-19 14:10:00,
2013-04-19 04:15:00,68.6,65.2,29.99,NNE,23,5.0,-999.0,89,0.01,,,0.03,Wunderground v.1.15,2013-04-19 14:15:00,
2013-04-19 04:20:00,68.6,65.2,29.99,NNE,23,5.0,-999.0,89,0.01,,,0.03,Wunderground v.1.15,2013-04-19 14:20:00,
2013-04-19 04:25:00,68.6,65.2,29.99,NNE,23,5.0,-999.0,89,0.01,,,0.03,Wunderground v.1.15,2013-04-19 14:25:00,
2013-04-19 04:30:00,68.6,65.2,29.99,NNE,23,5.0,-999.0,89,0.01,,,0.03,Wunderground v.1.15,2013-04-19 14:30:00,
2013-04-19 04:35:00,68.6,65.2,29.99,NNE,23,5.0,-999.0,89,0.01,,,0.03,Wunderground v.1.15,2013-04-19 14:35:00,
2013-04-19 04:40:00,68.6,65.2,29.99,NNE,23,5.0,-999.0,89,0.01,,,0.03,Wunderground v.1.15,2013-04-19 14:40:00,
2013-04-19 04:45:00,67.9,64.9,29.99,NNE,23,3.0,-999.0,90,0.02,,,0.03,Wunderground v.1.15,2013-04-19 14:45:00,
2013-04-19 04:50:00,67.9,64.9,29.99,NNE,23,3.0,-999.0,90,0.02,,,0.03,Wunderground v.1.15,2013-04-19 14:50:00,
2013-04-19 04:55:00,67.9,64.9,29.99,NNE,23,3.0,-999.0,90,0.02,,,0.03,Wunderground v.1.15,2013-04-19 14:55:00,
2013-04-19 05:00:00,67.9,64.9,29.99,NNE,23,3.0,-999.0,90,0.02,,,0.03,Wunderground v.1.15,2013-04-19 15:00:00,
2013-04-19 05:05:00,67.9,64.9,29.99,NNE,23,3.0,-999.0,90,0.02,,,0.03,Wunderground v.1.15,2013-04-19 15:05:00,
2013-04-19 05:10:00,67.9,64.9,29.99,NNE,23,3.0,-999.0,90,0.02,,,0.03,Wunderground v.1.15,2013-04-19 15:10:00,
2013-04-19 05:15:00,66.9,64.2,29.99,NNE,23,3.0,-999.0,91,0.01,,,0.03,Wunderground v.1.15,2013-04-19 15:15:00,
2013-04-19 05:20:00,66.9,64.2,29.99,NNE,23,3.0,-999.0,91,0.01,,,0.03,Wunderground v.1.15,2013-04-19 15:20:00,
2013-04-19 05:25:00,66.9,64.2,29.99,NNE,23,3.0,-999.0,91,0.01,,,0.03,Wunderground v.1.15,2013-04-19 15:25:00,
2013-04-19 05:30:00,66.9,64.2,29.99,NNE,23,3.0,-999.0,91,0.01,,,0.03,Wunderground v.1.15,2013-04-19 15:30:00,
2013-04-19 05:35:00,66.9,64.2,29.99,NNE,23,3.0,-999.0,91,0.01,,,0.03,Wunderground v.1.15,2013-04-19 15:35:00,
2013-04-19 05:40:00,66.9,64.2,29.99,NNE,23,3.0,-999.0,91,0.01,,,0.03,Wunderground v.1.15,2013-04-19 15:40:00,
2013-04-19 05:45:00,66.7,64.0,30.00,NNE,23,3.0,-999.0,91,0.00,,,0.03,Wunderground v.1.15,2013-04-19 15:45:00,
2013-04-19 05:50:00,66.7,64.0,30.00,NNE,23,3.0,-999.0,91,0.00,,,0.03,Wunderground v.1.15,2013-04-19 15:50:00,
2013-04-19 05:55:00,66.7,64.0,30.00,NNE,23,3.0,-999.0,91,0.00,,,0.03,Wunderground v.1.15,2013-04-19 15:55:00,
2013-04-19 06:00:00,66.7,64.0,30.00,NNE,23,3.0,-999.0,91,0.00,,,0.03,Wunderground v.1.15,2013-04-19 16:00:00,
2013-04-19 06:05:00,66.7,64.0,30.00,NNE,23,3.0,-999.0,91,0.00,,,0.03,Wunderground v.1.15,2013-04-19 16:05:00,
2013-04-19 06:10:00,66.7,64.0,30.00,NNE,23,3.0,-999.0,91,0.00,,,0.03,Wunderground v.1.15,2013-04-19 16:10:00,
2013-04-19 06:15:00,66.9,64.2,30.01,NE,45,4.0,-999.0,91,0.00,,,0.03,Wunderground v.1.15,2013-04-19 16:15:00,
2013-04-19 06:20:00,66.9,64.2,30.01,NE,45,4.0,-999.0,91,0.00,,,0.03,Wunderground v.1.15,2013-04-19 16:20:00,
2013-04-19 06:25:00,66.9,64.2,30.01,NE,45,4.0,-999.0,91,0.00,,,0.03,Wunderground v.1.15,2013-04-19 16:25:00,
2013-04-19 06:30:00,66.9,64.2,30.01,NE,45,4.0,-999.0,91,0.00,,,0.03,Wunderground v.1.15,2013-04-19 16:30:00,
2013-04-19 06:35:00,66.9,64.2,30.01,NE,45,4.0,-999.0,91,0.00,,,0.03,Wunderground v.1.15,2013-04-19 16:35:00,
2013-04-19 06:40:00,66.9,64.2,30.01,NE,45,4.0,-999.0,91,0.00,,,0.03,Wunderground v.1.15,2013-04-19 16:40:00,
2013-04-19 06:45:00,67.5,64.8,30.01,NE,45,4.0,-999.0,91,0.00,,,0.03,Wunderground v.1.15,2013-04-19 16:45:00,
2013-04-19 06:50:00,67.5,64.8,30.01,NE,45,4.0,-999.0,91,0.00,,,0.03,Wunderground v.1.15,2013-04-19 16:50:00,
2013-04-19 06:55:00,67.5,64.8,30.01,NE,45,4.0,-999.0,91,0.00,,,0.03,Wunderground v.1.15,2013-04-19 16:55:00,
2013-04-19 07:00:00,67.5,64.8,30.01,NE,45,4.0,-999.0,91,0.00,,,0.03,Wunderground v.1.15,2013-04-19 17:00:00,
2013-04-19 07:05:00,67.5,64.8,30.01,NE,45,4.0,-999.0,91,0.00,,,0.03,Wunderground v.1.15,2013-04-19 17:05:00,
2013-04-19 07:10:00,67.5,64.8,30.01,NE,45,4.0,-999.0,91,0.00,,,0.03,Wunderground v.1.15,2013-04-19 17:10:00,
2013-04-19 07:15:00,68.2,65.2,30.02,NE,45,4.0,-999.0,90,0.00,,,0.03,Wunderground v.1.15,2013-04-19 17:15:00,
2013-04-19 07:20:00,68.2,65.2,30.02,NE,45,4.0,-999.0,90,0.00,,,0.03,Wunderground v.1.15,2013-04-19 17:20:00,
2013-04-19 07:25:00,68.2,65.2,30.02,NE,45,4.0,-999.0,90,0.00,,,0.03,Wunderground v.1.15,2013-04-19 17:25:00,
2013-04-19 07:30:00,68.2,65.2,30.02,NE,45,4.0,-999.0,90,0.00,,,0.03,Wunderground v.1.15,2013-04-19 17:30:00,
2013-04-19 07:35:00,68.2,65.2,30.02,NE,45,4.0,-999.0,90,0.00,,,0.03,Wunderground v.1.15,2013-04-19 17:35:00,
2013-04-19 07:40:00,68.2,65.2,30.02,NE,45,4.0,-999.0,90,0.00,,,0.03,Wunderground v.1.15,2013-04-19 17:40:00,
2013-04-19 07:45:00,69.2,65.2,30.02,NE,45,5.0,-999.0,87,0.00,,,0.03,Wunderground v.1.15,2013-04-19 17:45:00,
2013-04-19 07:50:00,69.2,65.2,30.02,NE,45,5.0,-999.0,87,0.00,,,0.03,Wunderground v.1.15,2013-04-19 17:50:00,
2013-04-19 07:55:00,69.2,65.2,30.02,NE,45,5.0,-999.0,87,0.00,,,0.03,Wunderground v.1.15,2013-04-19 17:55:00,
2013-04-19 08:00:00,69.2,65.2,30.02,NE,45,5.0,-999.0,87,0.00,,,0.03,Wunderground v.1.15,2013-04-19 18:00:00,
2013-04-19 08:05:00,69.2,65.2,30.02,NE,45,5.0,-999.0,87,0.00,,,0.03,Wunderground v.1.15,2013-04-19 18:05:00,
2013-04-19 08:10:00,69.2,65.2,30.02,NE,45,5.0,-999.0,87,0.00,,,0.03,Wunderground v.1.15,2013-04-19 18:10:00,
2013-04-19 08:15:00,70.0,66.0,30.03,NE,45,4.0,-999.0,87,0.01,,,0.03,Wunderground v.1.15,2013-04-19 18:15:00,
2013-04-19 08:20:00,70.0,66.0,30.03,NE,45,4.0,-999.0,87,0.01,,,0.03,Wunderground v.1.15,2013-04-19 18:20:00,
2013-04-19 08:25:00,70.0,66.0,30.03,NE,45,4.0,-999.0,87,0.01,,,0.03,Wunderground v.1.15,2013-04-19 18:25:00,
2013-04-19 08:30:00,70.0,66.0,30.03,NE,45,4.0,-999.0,87,0.01,,,0.03,Wunderground v.1.15,2013-04-19 18:30:00,
2013-04-19 08:35:00,70.0,66.0,30.03,NE,45,4.0,-999.0,87,0.01,,,0.06,Wunderground v.1.15,2013-04-19 18:35:00,
2013-04-19 08:40:00,70.0,66.0,30.03,NE,45,4.0,-999.0,87,0.01,,,0.06,Wunderground v.1.15,2013-04-19 18:40:00,
2013-04-19 08:45:00,70.0,66.3,30.04,NE,45,4.0,-999.0,88,0.01,,,0.06,Wunderground v.1.15,2013-04-19 18:45:00,
2013-04-19 08:50:00,70.0,66.3,30.04,NE,45,4.0,-999.0,88,0.01,,,0.06,Wunderground v.1.15,2013-04-19 18:50:00,
2013-04-19 08:55:00,70.0,66.3,30.04,NE,45,4.0,-999.0,88,0.01,,,0.06,Wunderground v.1.15,2013-04-19 18:55:00,
2013-04-19 09:00:00,70.0,66.3,30.04,NE,45,4.0,-999.0,88,0.01,,,0.06,Wunderground v.1.15,2013-04-19 19:00:00,
2013-04-19 09:05:00,70.0,66.3,30.04,NE,45,4.0,-999.0,88,0.01,,,0.06,Wunderground v.1.15,2013-04-19 19:05:00,
2013-04-19 09:10:00,70.0,66.3,30.04,NE,45,4.0,-999.0,88,0.01,,,0.06,Wunderground v.1.15,2013-04-19 19:10:00,
2013-04-19 09:15:00,70.2,66.5,30.04,NE,45,3.0,-999.0,88,0.01,,,0.06,Wunderground v.1.15,2013-04-19 19:15:00,
2013-04-19 09:20:00,70.2,66.5,30.04,NE,45,3.0,-999.0,88,0.01,,,0.06,Wunderground v.1.15,2013-04-19 19:20:00,
2013-04-19 09:25:00,70.2,66.5,30.04,NE,45,3.0,-999.0,88,0.01,,,0.06,Wunderground v.1.15,2013-04-19 19:25:00,
2013-04-19 09:30:00,70.2,66.5,30.04,NE,45,3.0,-999.0,88,0.01,,,0.06,Wunderground v.1.15,2013-04-19 19:30:00,
2013-04-19 09:35:00,70.2,66.5,30.04,NE,45,3.0,-999.0,88,0.01,,,0.06,Wunderground v.1.15,2013-04-19 19:35:00,
2013-04-19 09:40:00,70.2,66.5,30.04,NE,45,3.0,-999.0,88,0.01,,,0.06,Wunderground v.1.15,2013-04-19 19:40:00,
2013-04-19 09:45:00,71.1,67.4,30.04,NE,45,3.0,-999.0,88,0.02,,,0.06,Wunderground v.1.15,2013-04-19 19:45:00,
2013-04-19 09:50:00,71.1,67.4,30.04,NE,45,3.0,-999.0,88,0.02,,,0.06,Wunderground v.1.15,2013-04-19 19:50:00,
2013-04-19 09:55:00,71.1,67.4,30.04,NE,45,3.0,-999.0,88,0.02,,,0.06,Wunderground v.1.15,2013-04-19 19:55:00,
2013-04-19 10:00:00,71.1,67.4,30.04,NE,45,3.0,-999.0,88,0.02,,,0.06,Wunderground v.1.15,2013-04-19 20:00:00,
2013-04-19 10:05:00,71.1,67.4,30.04,NE,45,3.0,-999.0,88,0.02,,,0.06,Wunderground v.1.15,2013-04-19 20:05:00,
2013-04-19 10:10:00,71.1,67.4,30.04,NE,45,3.0,-999.0,88,0.02,,,0.06,Wunderground v.1.15,2013-04-19 20:10:00,
2013-04-19 10:15:00,71.8,68.4,30.04,NE,45,6.0,-999.0,89,0.01,,,0.06,Wunderground v.1.15,2013-04-19 20:15:00,
2013-04-19 10:20:00,71.8,68.4,30.04,NE,45,6.0,-999.0,89,0.01,,,0.06,Wunderground v.1.15,2013-04-19 20:20:00,
2013-04-19 10:25:00,71.8,68.4,30.04,NE,45,6.0,-999.0,89,0.01,,,0.06,Wunderground v.1.15,2013-04-19 20:25:00,
2013-04-19 10:30:00,71.8,68.4,30.04,NE,45,6.0,-999.0,89,0.01,,,0.06,Wunderground v.1.15,2013-04-19 20:30:00,
2013-04-19 10:35:00,71.8,68.4,30.04,NE,45,6.0,-999.0,89,0.01,,,0.06,Wunderground v.1.15,2013-04-19 20:35:00,
2013-04-19 10:40:00,71.8,68.4,30.04,NE,45,6.0,-999.0,89,0.01,,,0.06,Wunderground v.1.15,2013-04-19 20:40:00,
2013-04-19 10:45:00,74.0,67.1,30.03,NE,45,7.0,-999.0,79,0.01,,,0.06,Wunderground v.1.15,2013-04-19 20:45:00,
2013-04-19 10:50:00,74.0,67.1,30.03,NE,45,7.0,-999.0,79,0.01,,,0.06,Wunderground v.1.15,2013-04-19 20:50:00,
2013-04-19 10:55:00,74.0,67.1,30.03,NE,45,7.0,-999.0,79,0.01,,,0.06,Wunderground v.1.15,2013-04-19 20:55:00,
2013-04-19 11:00:00,74.0,67.1,30.03,NE,45,7.0,-999.0,79,0.01,,,0.06,Wunderground v.1.15,2013-04-19 21:00:00,
2013-04-19 11:05:00,74.0,67.1,30.03,NE,45,7.0,-999.0,79,0.01,,,0.06,Wunderground v.1.15,2013-04-19 21:05:00,
2013-04-19 11:10:00,74.0,67.1,30.03,NE,45,7.0,-999.0,79,0.01,,,0.06,Wunderground v.1.15,2013-04-19 21:10:00,
2013-04-19 11:15:00,76.1,68.4,30.02,NE,45,8.0,-999.0,77,0.01,,,0.06,Wunderground v.1.15,2013-04-19 21:15:00,
2013-04-19 11:20:00,76.1,68.4,30.02,NE,45,8.0,-999.0,77,0.01,,,0.06,Wunderground v.1.15,2013-04-19 21:20:00,
2013-04-19 11:25:00,76.1,68.4,30.02,NE,45,8.0,-999.0,77,0.01,,,0.06,Wunderground v.1.15,2013-04-19 21:25:00,
2013-04-19 11:30:00,76.1,68.4,30.02,NE,45,8.0,-999.0,77,0.01,,,0.06,Wunderground v.1.15,2013-04-19 21:30:00,
2013-04-19 11:35:00,76.1,68.4,30.02,NE,45,8.0,-999.0,77,0.01,,,0.06,Wunderground v.1.15,2013-04-19 21:35:00,
2013-04-19 11:40:00,76.1,68.4,30.02,NE,45,8.0,-999.0,77,0.01,,,0.06,Wunderground v.1.15,2013-04-19 21:40:00,
2013-04-19 11:45:00,78.0,67.0,30.01,NE,45,8.0,-999.0,69,0.00,,,0.06,Wunderground v.1.15,2013-04-19 21:45:00,
2013-04-19 11:50:00,78.0,67.0,30.01,NE,45,8.0,-999.0,69,0.00,,,0.06,Wunderground v.1.15,2013-04-19 21:50:00,
2013-04-19 11:55:00,78.0,67.0,30.01,NE,45,8.0,-999.0,69,0.00,,,0.06,Wunderground v.1.15,2013-04-19 21:55:00,
2013-04-19 12:00:00,78.0,67.0,30.01,NE,45,8.0,-999.0,69,0.00,,,0.06,Wunderground v.1.15,2013-04-19 22:00:00,
2013-04-19 12:05:00,78.0,67.0,30.01,NE,45,8.0,-999.0,69,0.00,,,0.06,Wunderground v.1.15,2013-04-19 22:05:00,
2013-04-19 12:10:00,78.0,67.0,30.01,NE,45,8.0,-999.0,69,0.00,,,0.06,Wunderground v.1.15,2013-04-19 22:10:00,
2013-04-19 12:15:00,79.8,69.1,30.01,NE,45,7.0,-999.0,70,0.00,,,0.06,Wunderground v.1.15,2013-04-19 22:15:00,
2013-04-19 12:20:00,79.8,69.1,30.01,NE,45,7.0,-999.0,70,0.00,,,0.06,Wunderground v.1.15,2013-04-19 22:20:00,
2013-04-19 12:25:00,79.8,69.1,30.01,NE,45,7.0,-999.0,70,0.00,,,0.06,Wunderground v.1.15,2013-04-19 22:25:00,
2013-04-19 12:30:00,79.8,69.1,30.01,NE,45,7.0,-999.0,70,0.00,,,0.06,Wunderground v.1.15,2013-04-19 22:30:00,
2013-04-19 12:35:00,79.8,69.1,30.01,NE,45,7.0,-999.0,70,0.00,,,0.06,Wunderground v.1.15,2013-04-19 22:35:00,
2013-04-19 12:40:00,79.8,69.1,30.01,NE,45,7.0,-999.0,70,0.00,,,0.06,Wunderground v.1.15,2013-04-19 22:40:00,
2013-04-19 12:45:00,78.3,65.6,29.99,NE,45,7.0,-999.0,65,0.00,,,0.06,Wunderground v.1.15,2013-04-19 22:45:00,
2013-04-19 12:50:00,78.3,65.6,29.99,NE,45,7.0,-999.0,65,0.00,,,0.06,Wunderground v.1.15,2013-04-19 22:50:00,
2013-04-19 12:55:00,78.3,65.6,29.99,NE,45,7.0,-999.0,65,0.00,,,0.06,Wunderground v.1.15,2013-04-19 22:55:00,
2013-04-19 13:00:00,78.3,65.6,29.99,NE,45,7.0,-999.0,65,0.00,,,0.06,Wunderground v.1.15,2013-04-19 23:00:00,
2013-04-19 13:05:00,78.3,65.6,29.99,NE,45,7.0,-999.0,65,0.00,,,0.06,Wunderground v.1.15,2013-04-19 23:05:00,
2013-04-19 13:10:00,78.3,65.6,29.99,NE,45,7.0,-999.0,65,0.00,,,0.06,Wunderground v.1.15,2013-04-19 23:10:00,
2013-04-19 13:15:00,77.0,66.9,29.99,East,90,7.0,-999.0,71,0.00,,,0.06,Wunderground v.1.15,2013-04-19 23:15:00,
2013-04-19 13:20:00,77.0,66.9,29.99,East,90,7.0,-999.0,71,0.00,,,0.06,Wunderground v.1.15,2013-04-19 23:20:00,
2013-04-19 13:25:00,77.0,66.9,29.99,East,90,7.0,-999.0,71,0.00,,,0.06,Wunderground v.1.15,2013-04-19 23:25:00,
2013-04-19 13:30:00,77.0,66.9,29.99,East,90,7.0,-999.0,71,0.00,,,0.06,Wunderground v.1.15,2013-04-19 23:30:00,
2013-04-19 13:35:00,77.0,66.9,29.99,East,90,7.0,-999.0,71,0.00,,,0.06,Wunderground v.1.15,2013-04-19 23:35:00,
2013-04-19 13:40:00,77.0,66.9,29.99,East,90,7.0,-999.0,71,0.00,,,0.06,Wunderground v.1.15,2013-04-19 23:40:00,
2013-04-19 13:45:00,76.3,65.0,29.97,East,90,8.0,-999.0,68,0.00,,,0.06,Wunderground v.1.15,2013-04-19 23:45:00,
2013-04-19 13:50:00,76.3,65.0,29.97,East,90,8.0,-999.0,68,0.00,,,0.06,Wunderground v.1.15,2013-04-19 23:50:00,
2013-04-19 13:55:00,76.3,65.0,29.97,East,90,8.0,-999.0,68,0.00,,,0.06,Wunderground v.1.15,2013-04-19 23:55:00,
2013-04-19 14:00:00,76.3,65.0,29.97,East,90,8.0,-999.0,68,0.00,,,0.06,Wunderground v.1.15,2013-04-20 00:00:00,
2013-04-19 14:05:00,76.3,65.0,29.97,East,90,8.0,-999.0,68,0.00,,,0.06,Wunderground v.1.15,2013-04-20 00:05:00,
2013-04-19 14:10:00,76.3,65.0,29.97,East,90,8.0,-999.0,68,0.00,,,0.06,Wunderground v.1.15,2013-04-20 00:10:00,
2013-04-19 14:15:00,77.0,64.8,29.95,East,90,9.0,-999.0,66,0.00,,,0.06,Wunderground v.1.15,2013-04-20 00:15:00,
2013-04-19 14:20:00,77.0,64.8,29.95,East,90,9.0,-999.0,66,0.00,,,0.06,Wunderground v.1.15,2013-04-20 00:20:00,
2013-04-19 14:25:00,77.0,64.8,29.95,East,90,9.0,-999.0,66,0.00,,,0.06,Wunderground v.1.15,2013-04-20 00:25:00,
2013-04-19 14:30:00,77.0,64.8,29.95,East,90,9.0,-999.0,66,0.00,,,0.06,Wunderground v.1.15,2013-04-20 00:30:00,
2013-04-19 14:35:00,77.0,64.8,29.95,East,90,9.0,-999.0,66,0.00,,,0.06,Wunderground v.1.15,2013-04-20 00:35:00,
2013-04-19 14:40:00,77.0,64.8,29.95,East,90,9.0,-999.0,66,0.00,,,0.06,Wunderground v.1.15,2013-04-20 00:40:00,
2013-04-19 14:45:00,77.9,64.7,29.95,ENE,68,9.0,-999.0,64,0.00,,,0.06,Wunderground v.1.15,2013-04-20 00:45:00,
2013-04-19 14:50:00,77.9,64.7,29.95,ENE,68,9.0,-999.0,64,0.00,,,0.06,Wunderground v.1.15,2013-04-20 00:50:00,
2013-04-19 14:55:00,77.9,64.7,29.95,ENE,68,9.0,-999.0,64,0.00,,,0.06,Wunderground v.1.15,2013-04-20 00:55:00,
2013-04-19 15:00:00,77.9,64.7,29.95,ENE,68,9.0,-999.0,64,0.00,,,0.06,Wunderground v.1.15,2013-04-20 01:00:00,
2013-04-19 15:05:00,77.9,64.7,29.95,ENE,68,9.0,-999.0,64,0.00,,,0.06,Wunderground v.1.15,2013-04-20 01:05:00,
2013-04-19 15:10:00,77.9,64.7,29.95,ENE,68,9.0,-999.0,64,0.00,,,0.06,Wunderground v.1.15,2013-04-20 01:10:00,
2013-04-19 15:15:00,79.2,66.0,29.94,NE,45,9.0,-999.0,64,0.00,,,0.06,Wunderground v.1.15,2013-04-20 01:15:00,
2013-04-19 15:20:00,79.2,66.0,29.94,NE,45,9.0,-999.0,64,0.00,,,0.06,Wunderground v.1.15,2013-04-20 01:20:00,
2013-04-19 15:25:00,79.2,66.0,29.94,NE,45,9.0,-999.0,64,0.00,,,0.06,Wunderground v.1.15,2013-04-20 01:25:00,
2013-04-19 15:30:00,79.2,66.0,29.94,NE,45,9.0,-999.0,64,0.00,,,0.06,Wunderground v.1.15,2013-04-20 01:30:00,
2013-04-19 15:35:00,79.2,66.0,29.94,NE,45,9.0,-999.0,64,0.00,,,0.06,Wunderground v.1.15,2013-04-20 01:35:00,
2013-04-19 15:40:00,79.2,66.0,29.94,NE,45,9.0,-999.0,64,0.00,,,0.06,Wunderground v.1.15,2013-04-20 01:40:00,
2013-04-19 15:45:00,78.0,63.9,29.94,ENE,68,9.0,-999.0,62,0.00,,,0.06,Wunderground v.1.15,2013-04-20 01:45:00,
2013-04-19 15:50:00,78.0,63.9,29.94,ENE,68,9.0,-999.0,62,0.00,,,0.06,Wunderground v.1.15,2013-04-20 01:50:00,
2013-04-19 15:55:00,78.0,63.9,29.94,ENE,68,9.0,-999.0,62,0.00,,,0.06,Wunderground v.1.15,2013-04-20 01:55:00,
2013-04-19 16:00:00,78.0,63.9,29.94,ENE,68,9.0,-999.0,62,0.00,,,0.06,Wunderground v.1.15,2013-04-20 02:00:00,
2013-04-19 16:05:00,78.0,63.9,29.94,ENE,68,9.0,-999.0,62,0.00,,,0.06,Wunderground v.1.15,2013-04-20 02:05:00,
2013-04-19 16:10:00,78.0,63.9,29.94,ENE,68,9.0,-999.0,62,0.00,,,0.06,Wunderground v.1.15,2013-04-20 02:10:00,
2013-04-19 16:15:00,76.9,64.2,29.94,East,90,10.0,-999.0,65,0.00,,,0.06,Wunderground v.1.15,2013-04-20 02:15:00,
2013-04-19 16:20:00,76.9,64.2,29.94,East,90,10.0,-999.0,65,0.00,,,0.06,Wunderground v.1.15,2013-04-20 02:20:00,
2013-04-19 16:25:00,76.9,64.2,29.94,East,90,10.0,-999.0,65,0.00,,,0.06,Wunderground v.1.15,2013-04-20 02:25:00,
2013-04-19 16:30:00,76.9,64.2,29.94,East,90,10.0,-999.0,65,0.00,,,0.06,Wunderground v.1.15,2013-04-20 02:30:00,
2013-04-19 16:35:00,76.9,64.2,29.94,East,90,10.0,-999.0,65,0.00,,,0.06,Wunderground v.1.15,2013-04-20 02:35:00,
2013-04-19 16:40:00,76.9,64.2,29.94,East,90,10.0,-999.0,65,0.00,,,0.06,Wunderground v.1.15,2013-04-20 02:40:00,
2013-04-19 16:45:00,76.0,63.4,29.94,East,90,9.0,-999.0,65,0.00,,,0.06,Wunderground v.1.15,2013-04-20 02:45:00,
2013-04-19 16:50:00,76.0,63.4,29.94,East,90,9.0,-999.0,65,0.00,,,0.06,Wunderground v.1.15,2013-04-20 02:50:00,
2013-04-19 16:55:00,76.0,63.4,29.94,East,90,9.0,-999.0,65,0.00,,,0.06,Wunderground v.1.15,2013-04-20 02:55:00,
2013-04-19 17:00:00,76.0,63.4,29.94,East,90,9.0,-999.0,65,0.00,,,0.06,Wunderground v.1.15,2013-04-20 03:00:00,
2013-04-19 17:05:00,76.0,63.4,29.94,East,90,9.0,-999.0,65,0.00,,,0.06,Wunderground v.1.15,2013-04-20 03:05:00,
2013-04-19 17:10:00,76.0,63.4,29.94,East,90,9.0,-999.0,65,0.00,,,0.06,Wunderground v.1.15,2013-04-20 03:10:00,
2013-04-19 17:15:00,74.8,63.9,29.94,East,90,9.0,-999.0,69,0.00,,,0.06,Wunderground v.1.15,2013-04-20 03:15:00,
2013-04-19 17:20:00,74.8,63.9,29.94,East,90,9.0,-999.0,69,0.00,,,0.06,Wunderground v.1.15,2013-04-20 03:20:00,
2013-04-19 17:25:00,74.8,63.9,29.94,East,90,9.0,-999.0,69,0.00,,,0.06,Wunderground v.1.15,2013-04-20 03:25:00,
2013-04-19 17:30:00,74.8,63.9,29.94,East,90,9.0,-999.0,69,0.00,,,0.06,Wunderground v.1.15,2013-04-20 03:30:00,
2013-04-19 17:35:00,74.8,63.9,29.94,East,90,9.0,-999.0,69,0.00,,,0.06,Wunderground v.1.15,2013-04-20 03:35:00,
2013-04-19 17:40:00,74.8,63.9,29.94,East,90,9.0,-999.0,69,0.00,,,0.06,Wunderground v.1.15,2013-04-20 03:40:00,
2013-04-19 17:45:00,72.9,63.3,29.96,East,90,9.0,-999.0,72,0.00,,,0.06,Wunderground v.1.15,2013-04-20 03:45:00,
2013-04-19 17:50:00,72.9,63.3,29.96,East,90,9.0,-999.0,72,0.00,,,0.06,Wunderground v.1.15,2013-04-20 03:50:00,
2013-04-19 17:55:00,72.9,63.3,29.96,East,90,9.0,-999.0,72,0.00,,,0.06,Wunderground v.1.15,2013-04-20 03:55:00,
2013-04-19 18:00:00,72.9,63.3,29.96,East,90,9.0,-999.0,72,0.00,,,0.06,Wunderground v.1.15,2013-04-20 04:00:00,
2013-04-19 18:05:00,72.9,63.3,29.96,East,90,9.0,-999.0,72,0.00,,,0.06,Wunderground v.1.15,2013-04-20 04:05:00,
2013-04-19 18:10:00,72.9,63.3,29.96,East,90,9.0,-999.0,72,0.00,,,0.06,Wunderground v.1.15,2013-04-20 04:10:00,
2013-04-19 18:15:00,71.9,62.4,29.97,East,90,8.0,-999.0,72,0.00,,,0.06,Wunderground v.1.15,2013-04-20 04:15:00,
2013-04-19 18:20:00,71.9,62.4,29.97,East,90,8.0,-999.0,72,0.00,,,0.06,Wunderground v.1.15,2013-04-20 04:20:00,
2013-04-19 18:25:00,71.9,62.4,29.97,East,90,8.0,-999.0,72,0.00,,,0.06,Wunderground v.1.15,2013-04-20 04:25:00,
2013-04-19 18:30:00,71.9,62.4,29.97,East,90,8.0,-999.0,72,0.00,,,0.06,Wunderground v.1.15,2013-04-20 04:30:00,
2013-04-19 18:35:00,71.9,62.4,29.97,East,90,8.0,-999.0,72,0.00,,,0.06,Wunderground v.1.15,2013-04-20 04:35:00,
2013-04-19 18:40:00,71.9,62.4,29.97,East,90,8.0,-999.0,72,0.00,,,0.06,Wunderground v.1.15,2013-04-20 04:40:00,
2013-04-19 18:45:00,71.4,61.9,29.98,East,90,7.0,-999.0,72,0.00,,,0.06,Wunderground v.1.15,2013-04-20 04:45:00,
2013-04-19 18:50:00,71.4,61.9,29.98,East,90,7.0,-999.0,72,0.00,,,0.06,Wunderground v.1.15,2013-04-20 04:50:00,
2013-04-19 18:55:00,71.4,61.9,29.98,East,90,7.0,-999.0,72,0.00,,,0.06,Wunderground v.1.15,2013-04-20 04:55:00,
2013-04-19 19:00:00,71.4,61.9,29.98,East,90,7.0,-999.0,72,0.00,,,0.06,Wunderground v.1.15,2013-04-20 05:00:00,
2013-04-19 19:05:00,71.4,61.9,29.98,East,90,7.0,-999.0,72,0.00,,,0.06,Wunderground v.1.15,2013-04-20 05:05:00,
2013-04-19 19:10:00,71.4,61.9,29.98,East,90,7.0,-999.0,72,0.00,,,0.06,Wunderground v.1.15,2013-04-20 05:10:00,
2013-04-19 19:15:00,71.0,61.1,29.99,East,90,7.0,-999.0,71,0.00,,,0.06,Wunderground v.1.15,2013-04-20 05:15:00,
2013-04-19 19:20:00,71.0,61.1,29.99,East,90,7.0,-999.0,71,0.00,,,0.06,Wunderground v.1.15,2013-04-20 05:20:00,
2013-04-19 19:25:00,71.0,61.1,29.99,East,90,7.0,-999.0,71,0.00,,,0.06,Wunderground v.1.15,2013-04-20 05:25:00,
2013-04-19 19:30:00,71.0,61.1,29.99,East,90,7.0,-999.0,71,0.00,,,0.06,Wunderground v.1.15,2013-04-20 05:30:00,
2013-04-19 19:35:00,71.0,61.1,29.99,East,90,7.0,-999.0,71,0.00,,,0.06,Wunderground v.1.15,2013-04-20 05:35:00,
2013-04-19 19:40:00,71.0,61.1,29.99,East,90,7.0,-999.0,71,0.00,,,0.06,Wunderground v.1.15,2013-04-20 05:40:00,
2013-04-19 19:45:00,71.1,61.2,30.00,East,90,7.0,-999.0,71,0.00,,,0.06,Wunderground v.1.15,2013-04-20 05:45:00,
2013-04-19 19:50:00,71.1,61.2,30.00,East,90,7.0,-999.0,71,0.00,,,0.06,Wunderground v.1.15,2013-04-20 05:50:00,
2013-04-19 19:55:00,71.1,61.2,30.00,East,90,7.0,-999.0,71,0.00,,,0.06,Wunderground v.1.15,2013-04-20 05:55:00,
2013-04-19 20:00:00,71.1,61.2,30.00,East,90,7.0,-999.0,71,0.00,,,0.06,Wunderground v.1.15,2013-04-20 06:00:00,
2013-04-19 20:05:00,71.1,61.2,30.00,East,90,7.0,-999.0,71,0.00,,,0.06,Wunderground v.1.15,2013-04-20 06:05:00,
2013-04-19 20:10:00,71.1,61.2,30.00,East,90,7.0,-999.0,71,0.00,,,0.06,Wunderground v.1.15,2013-04-20 06:10:00,
2013-04-19 20:15:00,71.0,60.3,30.01,East,90,5.0,-999.0,69,0.00,,,0.06,Wunderground v.1.15,2013-04-20 06:15:00,
2013-04-19 20:20:00,71.0,60.3,30.01,East,90,5.0,-999.0,69,0.00,,,0.06,Wunderground v.1.15,2013-04-20 06:20:00,
2013-04-19 20:25:00,71.0,60.3,30.01,East,90,5.0,-999.0,69,0.00,,,0.06,Wunderground v.1.15,2013-04-20 06:25:00,
2013-04-19 20:30:00,71.0,60.3,30.01,East,90,5.0,-999.0,69,0.00,,,0.06,Wunderground v.1.15,2013-04-20 06:30:00,
2013-04-19 20:35:00,71.0,60.3,30.01,East,90,5.0,-999.0,69,0.00,,,0.06,Wunderground v.1.15,2013-04-20 06:35:00,
2013-04-19 20:40:00,71.0,60.3,30.01,East,90,5.0,-999.0,69,0.00,,,0.06,Wunderground v.1.15,2013-04-20 06:40:00,
2013-04-19 20:45:00,71.1,60.0,30.02,East,90,6.0,-999.0,68,0.00,,,0.06,Wunderground v.1.15,2013-04-20 06:45:00,
2013-04-19 20:50:00,71.1,60.0,30.02,East,90,6.0,-999.0,68,0.00,,,0.06,Wunderground v.1.15,2013-04-20 06:50:00,
2013-04-19 20:55:00,71.1,60.0,30.02,East,90,6.0,-999.0,68,0.00,,,0.06,Wunderground v.1.15,2013-04-20 06:55:00,
2013-04-19 21:00:00,71.1,60.0,30.02,East,90,6.0,-999.0,68,0.00,,,0.06,Wunderground v.1.15,2013-04-20 07:00:00,
2013-04-19 21:05:00,71.1,60.0,30.02,East,90,6.0,-999.0,68,0.00,,,0.06,Wunderground v.1.15,2013-04-20 07:05:00,
2013-04-19 21:10:00,71.1,60.0,30.02,East,90,6.0,-999.0,68,0.00,,,0.06,Wunderground v.1.15,2013-04-20 07:10:00,
2013-04-19 21:15:00,71.1,60.0,30.02,East,90,5.0,-999.0,68,0.00,,,0.06,Wunderground v.1.15,2013-04-20 07:15:00,
2013-04-19 21:20:00,71.1,60.0,30.02,East,90,5.0,-999.0,68,0.00,,,0.06,Wunderground v.1.15,2013-04-20 07:20:00,
2013-04-19 21:25:00,71.1,60.0,30.02,East,90,5.0,-999.0,68,0.00,,,0.06,Wunderground v.1.15,2013-04-20 07:25:00,
2013-04-19 21:30:00,71.1,60.0,30.02,East,90,5.0,-999.0,68,0.00,,,0.06,Wunderground v.1.15,2013-04-20 07:30:00,
2013-04-19 21:35:00,71.1,60.0,30.02,East,90,5.0,-999.0,68,0.00,,,0.06,Wunderground v.1.15,2013-04-20 07:35:00,
2013-04-19 21:40:00,71.1,60.0,30.02,East,90,5.0,-999.0,68,0.00,,,0.06,Wunderground v.1.15,2013-04-20 07:40:00,
2013-04-19 21:45:00,71.0,59.5,30.03,East,90,4.0,-999.0,67,0.00,,,0.06,Wunderground v.1.15,2013-04-20 07:45:00,
2013-04-19 21:50:00,71.0,59.5,30.03,East,90,4.0,-999.0,67,0.00,,,0.06,Wunderground v.1.15,2013-04-20 07:50:00,
2013-04-19 21:55:00,71.0,59.5,30.03,East,90,4.0,-999.0,67,0.00,,,0.06,Wunderground v.1.15,2013-04-20 07:55:00,
2013-04-19 22:00:00,71.0,59.5,30.03,East,90,4.0,-999.0,67,0.00,,,0.06,Wunderground v.1.15,2013-04-20 08:00:00,
2013-04-19 22:05:00,71.0,59.5,30.03,East,90,4.0,-999.0,67,0.00,,,0.06,Wunderground v.1.15,2013-04-20 08:05:00,
2013-04-19 22:10:00,71.0,59.5,30.03,East,90,4.0,-999.0,67,0.00,,,0.06,Wunderground v.1.15,2013-04-20 08:10:00,
2013-04-19 22:15:00,70.8,59.7,30.03,East,90,2.0,-999.0,68,0.00,,,0.06,Wunderground v.1.15,2013-04-20 08:15:00,
2013-04-19 22:20:00,70.8,59.7,30.03,East,90,2.0,-999.0,68,0.00,,,0.06,Wunderground v.1.15,2013-04-20 08:20:00,
2013-04-19 22:25:00,70.8,59.7,30.03,East,90,2.0,-999.0,68,0.00,,,0.06,Wunderground v.1.15,2013-04-20 08:25:00,
2013-04-19 22:30:00,70.8,59.7,30.03,East,90,2.0,-999.0,68,0.00,,,0.06,Wunderground v.1.15,2013-04-20 08:30:00,
2013-04-19 22:35:00,70.8,59.7,30.03,East,90,2.0,-999.0,68,0.00,,,0.06,Wunderground v.1.15,2013-04-20 08:35:00,
2013-04-19 22:40:00,70.8,59.7,30.03,East,90,2.0,-999.0,68,0.00,,,0.06,Wunderground v.1.15,2013-04-20 08:40:00,
2013-04-19 22:45:00,70.7,59.6,30.02,East,90,3.0,-999.0,68,0.00,,,0.06,Wunderground v.1.15,2013-04-20 08:45:00,
2013-04-19 22:50:00,70.7,59.6,30.02,East,90,3.0,-999.0,68,0.00,,,0.06,Wunderground v.1.15,2013-04-20 08:50:00,
2013-04-19 22:55:00,70.7,59.6,30.02,East,90,3.0,-999.0,68,0.00,,,0.06,Wunderground v.1.15,2013-04-20 08:55:00,
2013-04-19 23:00:00,70.7,59.6,30.02,East,90,3.0,-999.0,68,0.00,,,0.06,Wunderground v.1.15,2013-04-20 09:00:00,
2013-04-19 23:05:00,70.7,59.6,30.02,East,90,3.0,-999.0,68,0.00,,,0.06,Wunderground v.1.15,2013-04-20 09:05:00,
2013-04-19 23:10:00,70.7,59.6,30.02,East,90,3.0,-999.0,68,0.00,,,0.06,Wunderground v.1.15,2013-04-20 09:10:00,
2013-04-19 23:15:00,70.5,59.4,30.01,East,90,3.0,-999.0,68,0.00,,,0.06,Wunderground v.1.15,2013-04-20 09:15:00,
2013-04-19 23:20:00,70.5,59.4,30.01,East,90,3.0,-999.0,68,0.00,,,0.06,Wunderground v.1.15,2013-04-20 09:20:00,
2013-04-19 23:25:00,70.5,59.4,30.01,East,90,3.0,-999.0,68,0.00,,,0.06,Wunderground v.1.15,2013-04-20 09:25:00,
2013-04-19 23:30:00,70.5,59.4,30.01,East,90,3.0,-999.0,68,0.00,,,0.06,Wunderground v.1.15,2013-04-20 09:30:00,
2013-04-19 23:35:00,70.5,59.4,30.01,East,90,3.0,-999.0,68,0.00,,,0.06,Wunderground v.1.15,2013-04-20 09:35:00,
2013-04-19 23:40:00,70.5,59.4,30.01,East,90,3.0,-999.0,68,0.00,,,0.06,Wunderground v.1.15,2013-04-20 09:40:00,
2013-04-19 23:45:00,70.5,59.8,30.01,East,90,4.0,-999.0,69,0.00,,,0.06,Wunderground v.1.15,2013-04-20 09:45:00,
2013-04-19 23:50:00,70.5,59.8,30.01,East,90,4.0,-999.0,69,0.00,,,0.06,Wunderground v.1.15,2013-04-20 09:50:00,
2013-04-19 23:55:00,70.5,59.8,30.01,East,90,4.0,-999.0,69,0.00,,,0.06,Wunderground v.1.15,2013-04-20 09:55:00,